Weather Roundup
Issued by NWS Corpus Christi, TX

Current Version | Previous Version | Text Only | Print | Product List | Glossary On
Versions: 1 2 3 4 5 6 7 8 9 10 11 12 13 14 15 16 17 18 19 20 21 22 23 24 25 26 27 28 29 30 31 32 33 34 35 36 37 38 39 40 41 42 43 44 45 46 47 48 49 50
000
ASUS44 KCRP 292310
HRRCRP

SOUTH TEXAS REGIONAL WEATHER ROUNDUP
NATIONAL WEATHER SERVICE CORPUS CHRISTI TX
600 PM CDT MON AUG 29 2016


TXZ229>244-300000-
...CORPUS CHRISTI AREA OBSERVATIONS...

CITY           SKY/WX    TMP DP  RH WIND       PRES   REMARKS
CORPUS CHRISTI CLOUDY    84  75  74 E12       29.86R HX  92
NAS CORPUS CHR CLOUDY    87  78  74 E16       29.85S HX 100
ROCKPORT       NOT AVBL
KINGSVILLE NAS PTSUNNY   89  74  60 NE12      29.85R HX  98
ALICE          LGT RAIN  81  75  82 N12       29.87R
FALFURRIAS     MOSUNNY   90  72  55 NE13      29.84S HX  96
$$

...VICTORIA AREA OBSERVATIONS...

CITY           SKY/WX    TMP DP  RH WIND       PRES   REMARKS
VICTORIA       CLOUDY    80  74  81 E7        29.90R
BEEVILLE       FAIR      83  76  79 NE6       29.88S HX  90
PLEASANTON     SUNNY     88  71  57 NE8       29.91R HX  93
SAN ANTONIO    SUNNY     88  69  53 E10       29.93R HX  92
$$

...LAREDO AREA OBSERVATIONS...

CITY           SKY/WX    TMP DP  RH WIND       PRES   REMARKS
LAREDO         MOSUNNY   91  72  53 N16       29.88S HX  98
COTULLA        MOSUNNY   91  69  48 NE12      29.89F HX  96
DEL RIO        CLOUDY    77  73  87 W7        29.94S
MCALLEN        MOSUNNY   99  68  36 NE6G17    29.82S HX 104
HEBBRONVILLE   SUNNY     89  68  49 NE12      29.88S HX  93
$$

...OTHER TEXAS OBSERVATIONS...

CITY           SKY/WX    TMP DP  RH WIND       PRES   REMARKS
BROWNSVILLE    SUNNY     92  74  55 NE14G24   29.83R HX 101
HOUSTON        CLOUDY    81  75  82 N7        29.94R
COL. STATION   CLOUDY    76  73  91 E10       29.96S
AUSTIN         LGT RAIN  79  74  84 E16G29    29.93R
WACO           CLOUDY    80  72  76 SE20G31   29.98R THUNDER
FORT WORTH     PTSUNNY   83  72  69 W5        29.98F
WICHITA FALLS  SUNNY     93  62  35 NE9       30.01S HX  93
LUBBOCK        CLOUDY    69  67  93 N15       30.15S
EL PASO        PTSUNNY   85  56  37 E12       30.07F
$$

...MARINE OBSERVATIONS...

STATION/POSITION TIME  SKY/WX   TEMP    WIND        PRES    VSBY  WAVE   SWELL
                                AIR SEA DIR/SP/G                  HT/PER HT/PER
                 (UTC)          (F)     (DEG/KT/KT) (MB)    (MI)  (FT/S) (FT/S)
PORT ARANSAS     2300            83 87   70/ 19/ 20 1011.2R
BUOY 90 E PORT A 2250            83 85   70/ 16/ 17 1010.9R         4/ 5
BUOY 45 SE BAFFI 2250            83 86   50/  8/ 10 1010.0R         2/ 5   2/ 5
BUOY 200 E PT IS 2250            86 88   80/  8/ 10 1009.1F         2/ 7   2/ 7
BUOY 15 E GALVES 2250            82 85   70/ 17/ 19 1012.3R         4/ 6
$$




USA.gov is the U.S. government's official web portal to all federal, state and local government web resources and services.